Location: ??
(34.7707°N, 135.6540°E)
Time: 21:47:29
(UTC+00:00)

PAYLOAD A - Pass Details

Date: 09 April 2020
Orbit: 691 x 833 km, 98.3° (Epoch: 24 May)

Event Time Altitude Azimuth Distance (km) Brightness Sun altitude
Rises 19:29:28 0° 4° (N) 3,361 7.7 -13.3°
Reaches altitude 10° 19:31:57 10° 358° (N) 2,411 6.8 -12.8°
Maximum altitude 19:36:58 43° 289° (WNW) 1,109 4.5 -11.8°
Drops below altitude 10° 19:41:48 10° 218° (SW) 2,323 6.0 -10.9°
Enters shadow 19:42:18 - 216° (SW) 2,510 6.2 -10.8°
